Miscellaneous Local Product
Issued by NWS Hastings, NE

Home | Current Version | Previous Version | Graphics & Text | Print | Product List | Glossary On
Versions: 1 2 3 4 5 6 7 8 9 10 11 12 13 14 15 16 17 18 19 20 21 22 23 24 25 26 27 28 29 30 31 32 33 34 35 36 37 38 39 40 41 42 43 44 45 46 47 48 49 50
000
AXUS43 KGID 231902
MISGRI

GID CWA HOURLY WEATHER ROUNDUP
NATIONAL WEATHER SERVICE HASTINGS NE
200 PM CDT SAT SEP 23 2017

NOTE: "FAIR" INDICATES FEW OR NO CLOUDS BELOW 12,000 FEET WITH NO
SIGNIFICANT WEATHER AND/OR OBSTRUCTIONS TO VISIBILITY.

...SOUTH CENTRAL NEBRASKA...

CITY           SKY/WX    TMP DP  RH WIND       PRES   REMARKS
GRAND ISLAND   MOSUNNY   82  64  54 S14G24    29.90F
HASTINGS       CLOUDY    80  66  62 S6        29.92F
KEARNEY        MOSUNNY   88  65  46 S20G26    29.87F HX  90
ORD            CLOUDY    75  57  53 N10       29.89F
YORK           PTSUNNY   90  66  45 S20G28    29.90F HX  92
AURORA         CLOUDY    81  69  68 S8        29.91F
LEXINGTON      CLOUDY    84  64  50 S15       29.87F
HOLDREGE       CLOUDY    87  62  42 S17G23    29.87F
HEBRON         MOSUNNY   92  63  38 S15G24    29.91F HX  93

...NEBRASKA PANHANDLE...

CITY           SKY/WX    TMP DP  RH WIND       PRES   REMARKS
CHADRON        LGT RAIN  46  43  89 NE15      30.01F
ALLIANCE       LGT RAIN  45  43  93 N10       30.00S
SCOTTSBLUFF    CLOUDY    46  42  86 NE3       30.03R
SIDNEY         LGT RAIN  46  45  96 NE7       30.03R

...WESTERN AND NORTH CENTRAL NEBRASKA...

CITY           SKY/WX    TMP DP  RH WIND       PRES   REMARKS
VALENTINE      CLOUDY    51  49  92 NE10      30.00S FOG
AINSWORTH      RAIN      50  50 100 N7        29.98F
ONEILL         CLOUDY    55  55 100 N7        29.97S FOG
BROKEN BOW     CLOUDY    60  54  80 N12       29.92F
IMPERIAL       LGT RAIN  54  51  90 N10       29.98R
NORTH PLATTE   CLOUDY    55  54  96 NE7       29.94F
MCCOOK         PTSUNNY   82  65  56 W13       29.87F

...EASTERN NEBRASKA...

CITY           SKY/WX    TMP DP  RH WIND       PRES   REMARKS
NORFOLK        MOSUNNY   86  68  54 S23G31    29.88F
SO SIOUX CITY  PTSUNNY   85  70  60 S15       29.91F
TEKAMAH        MOSUNNY   89  68  49 S12G21    29.92F HX  93
COLUMBUS       CLOUDY    87  68  52 SE13G18   29.90F HX  90
ALBION         PTSUNNY   84  70  61 SE13G20   29.89F
OMAHA EPPLEY   PTSUNNY   90  66  45 S24       29.93F HX  92
OFFUTT AFB     SUNNY     90  66  45 SE21G26   29.93F HX  92
MILLARD        MOSUNNY   91  68  46 S13G18    29.93F HX  95
LINCOLN        MOSUNNY   92  65  40 S17G25    29.91F HX  94
NEBRASKA CITY  PTSUNNY   88  66  48 S16G24    29.95F HX  90
BEATRICE       MOSUNNY   90  66  45 S21       29.93F HX  93
FALLS CITY     MOSUNNY   89  65  44 S17G25    29.96F HX  91

...NORTHERN KANSAS...

CITY           SKY/WX    TMP DP  RH WIND       PRES   REMARKS
GOODLAND       PTSUNNY   59  49  69 N12       29.95F
HILL CITY      MOSUNNY   90  65  43 S16G26    29.86F HX  92
NORTON         MOCLDY    90  54  29 S16G23    29.84
PHILLIPSBURG   SUNNY     91  61  35 SE14G23   29.86F HX  91
SMITH CENTER   PTSUNNY   90  64  43 SE23G29   29.88F HX  91
HAYS           PTSUNNY   90  64  42 S20G31    29.87F HX  91
RUSSELL        MOSUNNY   91  62  37 S21G29    29.88F HX  91
CONCORDIA      MOSUNNY   87  67  51 S14G24    29.92F HX  90
SALINA         SUNNY     94  62  34 S22G29    29.91F HX  94
TOPEKA         MOSUNNY   89  68  49 SE17G24   29.97F HX  93



USA.gov is the U.S. government's official web portal to all federal, state and local government web resources and services.